This is the latest recevied weather packets stored in our database for station/object N5PA. If no packets are shown the sender has not sent any weather packets the latest 10 day(s).
| Time | Temp. | Humidity | Pressure | Rain* | Wind** | Luminosity | Snow |
|---|---|---|---|---|---|---|---|
| 1777577109 | 18.33° C | 61% | 1012.8 hPa | 0.25 mm | - | 1007 W/m² | - |
| 1777576808 | 18.33° C | 62% | 1013.1 hPa | 0 mm | - | 1011 W/m² | - |
| 1777576508 | 18.89° C | 58% | 1013 hPa | 0 mm | - | 1009 W/m² | - |
| 1777576209 | 18.89° C | 59% | 1013.2 hPa | 0 mm | - | 1009 W/m² | - |
| 1777575908 | 18.89° C | 58% | 1013.3 hPa | 0 mm | - | 1004 W/m² | - |
| 1777575609 | 18.89° C | 57% | 1013.2 hPa | 0 mm | - | 1009 W/m² | - |
| 1777575307 | 18.89° C | 55% | 1013.4 hPa | 0.25 mm | - | 1005 W/m² | - |
| 1777575009 | 18.89° C | 51% | 1013.4 hPa | 0.25 mm | - | 1009 W/m² | - |
| 1777574708 | 18.89° C | 51% | 1013.4 hPa | 0.25 mm | - | 1009 W/m² | - |
| 1777574408 | 18.33° C | 52% | 1013 hPa | 0.25 mm | - | 1011 W/m² | - |
| 1777574107 | 18.33° C | 48% | 1013 hPa | 0.25 mm | - | 1009 W/m² | - |
| 1777573809 | 18.33° C | 51% | 1013.1 hPa | 0.25 mm | - | 1009 W/m² | - |
| 1777573508 | 18.33° C | 51% | 1013.3 hPa | 0.25 mm | - | 1009 W/m² | - |
| 1777573207 | 18.33° C | 50% | 1013.5 hPa | 0.25 mm | - | 1007 W/m² | - |
| 1777572908 | 18.33° C | 51% | 1013.5 hPa | 0.25 mm | - | 1009 W/m² | - |
| 1777572608 | 17.78° C | 54% | 1013.7 hPa | 0.25 mm | - | 1005 W/m² | - |
| 1777572308 | 17.78° C | 56% | 1013.8 hPa | 0.25 mm | - | 1005 W/m² | - |
| 1777572008 | 18.33° C | 57% | 1013.9 hPa | 0.25 mm | - | 1007 W/m² | - |
| 1777571707 | 18.33° C | 52% | 1014.1 hPa | 0.25 mm | - | 1005 W/m² | - |
| 1777571409 | 18.33° C | 53% | 1013.9 hPa | 0.25 mm | - | 1007 W/m² | - |
| 1777571108 | 18.33° C | 50% | 1013.9 hPa | 0.25 mm | - | 1009 W/m² | - |
| 1777570808 | 18.33° C | 48% | 1013.7 hPa | 0.25 mm | - | 1007 W/m² | - |
| 1777570508 | 18.33° C | 48% | 1013.7 hPa | 0.25 mm | - | 1004 W/m² | - |
| 1777570208 | 18.33° C | 47% | 1013.7 hPa | 0.25 mm | - | 1005 W/m² | - |
| 1777569908 | 17.78° C | 49% | 1013.9 hPa | 0.25 mm | - | 1009 W/m² | - |
* Rain latest hour (hover to see other rain measurements)
** Current wind speed in m/s (hover to see current wind gust speed)